Weather History for St. Joseph, MO

Change the Weather History Date:

Thursday, May 2, 2013

  Actual Average Record
Temperature  
Mean Temperature 37 °F 59 °F  
Max Temperature 41 °F 71 °F 92 °F (1968)
Min Temperature 33 °F 48 °F 30 °F (1961)
Degree Days  
Heating Degree Days 28 7  
Month to date heating degree days 38 14  
Since 1 July heating degree days 5471 5352  
Cooling Degree Days 0 1  
Month to date cooling degree days 0 2  
Year to date cooling degree days 16 23  
Moisture  
Dew Point 34 °F    
Average Humidity 93    
Maximum Humidity 100    
Minimum Humidity 85    
Precipitation  
Precipitation 0.78 in 0.18 in 1.34 in (1919)
Month to date precipitation 0.81 0.37  
Year to date precipitation 7.32 7.90  
Sea Level Pressure  
Sea Level Pressure 30.40 in    
Wind  
Wind Speed 17 mph (North)    
Max Wind Speed 31 mph    
Max Gust Speed 39 mph    
Visibility 4 miles    
Events Rain , Snow    
T = Trace of Precipitation, MM = Missing Value Source: NWS Daily Summary

Daily Weather History Graph

Daily Weather History Graph

Search for Another Location

Airport:

Trip Planner

Search our weather history database for the weather conditions in past years. The results will help you decide how hot, cold, wet, or windy it might be!

Date:

Astronomy

May. 02, 2013 Rise Set
Actual Time 6:18 AM CDT 8:15 PM CDT
Civil Twilight 5:49 AM CDT 8:44 PM CDT
Nautical Twilight 5:13 AM CDT 9:20 PM CDT
Astronomical Twilight 4:35 AM CDT 9:59 PM CDT
Moon 2:05 AM CDT (5/2) 1:06 PM CDT (5/2)
Length of Visible Light 14h 55m
Length of Day
13h 56m
Waning Gibbous, 47% of the Moon is Illuminated
May 2
Waning Gibbous
May 9
New
May 17
First Quarter
May 24
Full
May 31
Last Quarter

Hourly Weather History & Observations

Time (CDT) Temp. Windchill Dew Point Humidity Pressure Visibility Wind Dir Wind Speed Gust Speed Precip Events Conditions
12:42 AM 41.0 °F 31.1 °F 35.6 °F 81% 30.25 in 10.0 mi NNE 23.0 mph 29.9 mph 0.02 in Rain Light Rain
12:53 AM 41.0 °F 31.6 °F 36.0 °F 82% 30.25 in 10.0 mi NNE 20.7 mph 29.9 mph 0.02 in Rain Light Rain
1:53 AM 41.0 °F 31.9 °F 37.0 °F 86% 30.28 in 5.0 mi North 19.6 mph 28.8 mph 0.10 in Rain Rain
2:53 AM 39.9 °F 29.7 °F 36.0 °F 86% 30.29 in 10.0 mi North 23.0 mph 32.2 mph 0.00 in   Overcast
3:05 AM 39.2 °F 28.5 °F 35.6 °F 87% 30.28 in 9.0 mi North 24.2 mph 35.7 mph 0.01 in   Overcast
3:53 AM 39.9 °F 31.1 °F 36.0 °F 86% 30.31 in 5.0 mi North 17.3 mph 24.2 mph 0.02 in   Overcast
4:05 AM 39.2 °F 30.2 °F 37.4 °F 93% 30.30 in 5.0 mi North 17.3 mph - 0.01 in   Overcast
4:21 AM 39.2 °F 29.6 °F 37.4 °F 93% 30.30 in 5.0 mi North 19.6 mph 25.3 mph 0.01 in   Overcast
4:53 AM 39.9 °F 30.5 °F 37.0 °F 89% 30.31 in 9.0 mi North 19.6 mph 25.3 mph 0.02 in Rain Light Rain
5:03 AM 39.2 °F 29.8 °F 35.6 °F 87% 30.31 in 7.0 mi North 18.4 mph 27.6 mph 0.00 in   Overcast
5:53 AM 39.9 °F 30.2 °F 36.0 °F 86% 30.33 in 10.0 mi North 20.7 mph 29.9 mph 0.02 in Rain Light Rain
6:53 AM 39.0 °F 28.3 °F 35.1 °F 86% 30.38 in 6.0 mi North 24.2 mph 31.1 mph 0.02 in Rain Rain
7:53 AM 37.9 °F 27.1 °F 34.0 °F 86% 30.39 in 6.0 mi North 23.0 mph - 0.10 in Rain Light Rain
8:33 AM 37.4 °F 25.9 °F 33.8 °F 87% 30.40 in 4.0 mi North 25.3 mph 34.5 mph 0.04 in Snow Light Snow
8:45 AM 35.6 °F 23.2 °F 33.8 °F 93% 30.39 in 4.0 mi North 26.5 mph 33.4 mph 0.06 in Rain Rain
9:39 AM 35.6 °F 24.0 °F - N/A% 30.42 in 4.0 mi North 23.0 mph 31.1 mph 0.04 in Snow Light Snow
9:53 AM 35.1 °F 24.5 °F - N/A% 30.45 in 5.0 mi North 18.4 mph 27.6 mph 0.06 in Snow Light Snow
10:53 AM 35.1 °F 23.8 °F 33.1 °F 92% 30.46 in 2.5 mi North 20.7 mph 31.1 mph 0.04 in Snow Light Snow
11:09 AM 35.6 °F 25.9 °F 33.8 °F 93% 30.45 in 3.0 mi North 16.1 mph - 0.03 in Snow Light Snow
11:16 AM 35.6 °F 25.5 °F 33.8 °F 93% 30.44 in 2.5 mi North 17.3 mph - 0.03 in Snow Light Snow
11:37 AM 33.8 °F 24.3 °F 32.0 °F 93% 30.44 in 1.0 mi North 13.8 mph - 0.07 in Snow Light Snow
11:49 AM 33.8 °F 23.5 °F 32.0 °F 93% 30.43 in 0.8 mi North 16.1 mph - 0.08 in Snow Light Snow
11:53 AM 33.1 °F 22.2 °F 32.0 °F 96% 30.45 in 0.8 mi North 17.3 mph - 0.09 in Snow Light Snow
12:13 PM 33.8 °F 22.5 °F 32.0 °F 93% 30.43 in 1.0 mi North 19.6 mph 25.3 mph 0.02 in Snow Light Snow
12:53 PM 34.0 °F 22.7 °F 33.1 °F 96% 30.45 in 1.2 mi North 19.6 mph - 0.05 in Snow Light Snow
1:25 PM 33.8 °F 23.5 °F 32.0 °F 93% 30.43 in 0.8 mi North 16.1 mph - 0.03 in Snow Light Snow
1:38 PM 33.8 °F 23.2 °F 33.8 °F 100% 30.43 in 1.2 mi North 17.3 mph - 0.04 in Snow Light Snow
1:53 PM 34.0 °F 23.0 °F 33.1 °F 96% 30.44 in 1.5 mi North 18.4 mph - 0.05 in Snow Light Snow
2:14 PM 35.6 °F 24.2 °F 33.8 °F 93% 30.41 in 2.5 mi North 21.9 mph 27.6 mph 0.02 in Snow Light Snow
2:44 PM 35.6 °F 24.5 °F 33.8 °F 93% 30.43 in 3.0 mi North 20.7 mph 27.6 mph 0.04 in Snow Light Snow
2:53 PM 36.0 °F 24.2 °F 34.0 °F 93% 30.45 in 5.0 mi North 24.2 mph 29.9 mph 0.04 in Snow Light Snow
3:25 PM 35.6 °F 23.2 °F 33.8 °F 93% 30.43 in 5.0 mi North 26.5 mph 34.5 mph 0.01 in Snow Light Snow
3:53 PM 36.0 °F 24.4 °F 33.1 °F 89% 30.46 in 6.0 mi North 23.0 mph 31.1 mph 0.02 in Snow Light Snow
4:33 PM 35.6 °F 24.8 °F 33.8 °F 93% 30.43 in 3.0 mi North 19.6 mph - 0.02 in Snow Light Snow
4:40 PM 35.6 °F 25.5 °F 33.8 °F 93% 30.44 in 2.5 mi North 17.3 mph - 0.02 in Snow Light Snow
4:53 PM 34.0 °F 22.4 °F 33.1 °F 96% 30.46 in 1.5 mi North 20.7 mph 26.5 mph 0.03 in Snow Light Snow
5:11 PM 33.8 °F 22.5 °F 33.8 °F 100% 30.44 in 1.2 mi North 19.6 mph 29.9 mph 0.01 in Snow Light Snow
5:25 PM 33.8 °F 22.5 °F 33.8 °F 100% 30.44 in 1.5 mi North 19.6 mph 27.6 mph 0.01 in Snow Light Snow
5:47 PM 33.8 °F 22.2 °F 32.0 °F 93% 30.44 in 0.8 mi North 20.7 mph - 0.02 in Snow Light Snow
5:53 PM 34.0 °F 23.0 °F 32.0 °F 92% 30.47 in 0.8 mi North 18.4 mph 27.6 mph 0.02 in Snow Light Snow
6:21 PM 33.8 °F 24.8 °F 32.0 °F 93% 30.43 in 1.0 mi North 12.7 mph - 0.01 in Snow Light Snow
6:33 PM 33.8 °F 24.8 °F 33.8 °F 100% 30.43 in 2.0 mi North 12.7 mph - 0.01 in Snow Light Snow
6:44 PM 33.8 °F 24.3 °F 33.8 °F 100% 30.42 in 1.8 mi North 13.8 mph - 0.02 in Snow Light Snow
6:51 PM 33.8 °F 24.8 °F 33.8 °F 100% 30.43 in 2.0 mi North 12.7 mph - 0.02 in Snow Light Snow
6:53 PM 34.0 °F 25.5 °F 33.1 °F 96% 30.45 in 2.0 mi North 11.5 mph - 0.02 in Snow Light Snow
7:02 PM 33.8 °F 24.8 °F 33.8 °F 100% 30.41 in 2.0 mi North 12.7 mph - 0.00 in Snow Light Snow
7:17 PM 33.8 °F 24.8 °F 33.8 °F 100% 30.41 in 4.0 mi North 12.7 mph - 0.01 in Snow Light Snow
7:53 PM 35.1 °F 26.9 °F 33.1 °F 92% 30.42 in 10.0 mi NNE 11.5 mph - 0.01 in   Overcast
8:53 PM 36.0 °F 29.6 °F 34.0 °F 93% 30.40 in 10.0 mi North 8.1 mph - N/A   Overcast
9:53 PM 36.0 °F - 34.0 °F 93% 30.40 in 10.0 mi Calm Calm - N/A   Overcast
10:53 PM 36.0 °F 33.3 °F 34.0 °F 93% 30.39 in 10.0 mi West 3.5 mph - N/A   Overcast
11:53 PM 37.0 °F 34.5 °F 35.1 °F 93% 30.36 in 10.0 mi NNW 3.5 mph - N/A   Overcast